Hourly Data Report for November 17, 2011

HALIFAX STANFIELD INT'L A
NOVA SCOTIA

44°52'48.060" N
63°30'00.050" W
145.40 m
8202250
71395
YHZ

Download Data

Hourly Data (November 2011)
Hourly Data Report for November 17, 2011
TIME
LST
Temp Definition
°C
Dew Point Definition
°C
Rel Hum Definition
%
Precip. Amount Definition
mm

Wind Dir Definition
10's deg

Wind Spd Definition
km/h
Visibility Definition
km
Stn Press Definition
kPa
Hmdx Definition


Wind Chill Definition


Weather Definition


00:00 9.6 9.6 100   13 41 6.4 98.86     Rain Showers, Fog
01:00 8.3 8.3 100   13 32 8.0 98.68     Rain Showers, Fog
02:00 8.2 8.1 99   12 33 8.0 98.51     Rain Showers, Fog
03:00 8.4 8.4 100   13 24 2.0 98.41     Rain Showers, Fog
04:00 8.5 8.5 100   33 15 0.4 98.37     Rain Showers, Fog
05:00 8.1 8.0 99   36 13 0.4 98.32     Drizzle, Fog
06:00 7.7 7.7 100   34 19 0.2 98.38     Fog
07:00 7.6 7.6 100   32 20 0.4 98.38     Fog
08:00 7.5 7.5 100   33 17 0.4 98.37     Fog
09:00 7.9 7.8 99   31 17 8.0 98.56     Fog
10:00 8.6 8.6 100   30 15 24.1 98.58     Mostly Cloudy
11:00 10.1 9.8 98   31 22 24.1 98.62     Mostly Cloudy
12:00 11.1 9.6 90   32 24 24.1 98.56     Mostly Cloudy
13:00 11.1 8.8 86   31 17 24.1 98.63     Mostly Cloudy
14:00 11.5 8.2 80   34 13 24.1 98.54     Mostly Cloudy
15:00 11.0 8.8 86   30 9 24.1 98.57     Cloudy
16:00 10.5 7.9 84   33 13 24.1 98.58     Cloudy
17:00 9.8 8.4 91   34 6 24.1 98.53     Cloudy
18:00 10.0 8.2 89   32 6 24.1 98.58     Cloudy
19:00 8.8 7.6 92   4 13 19.3 98.55     Rain Showers
20:00 7.4 6.0 91   2 13 9.7 98.44     Rain Showers, Fog
21:00 6.0 5.1 94   2 19 12.9 98.34     Rain Showers
22:00 5.8 5.3 97   35 19 8.0 98.15     Rain Showers, Fog
23:00 4.1 3.7 97   36 28 8.0 98.23     Rain Showers, Fog

Notes on Data Quality.

Legend

  • E = Estimated
  • M = Missing
  • NA = Not Available*
  • [empty] = Indicates an unobserved value
Date modified: